Volver al catálogo

SHERPA-FX2/TAGSAT-2

ActivoCienciaPO
NORAD 48958·PAYLOAD·🇺🇸 United States

Lanzado Jun 30, 2021 desde Cape Canaveral Space Force Station

Loading…

Próximos Pases (próximas 24 horas)

TLE

ActualizadoSource: Space-Track

Época: Sep 14, 2026, 01:52 UTC

1 48958U 21059CH  26257.07795458  .00019558  00000-0  24721-3 0  9995
2 48958  97.6786  98.0306 0006237  22.0722 338.0801 15.59564331291263

Sigue SHERPA-FX2/TAGSAT-2 en tiempo real con AllMySat

Download on the App Store